Location: Bodest
(46.3000°N, 22.5667°E)
Time: 21:47:21
(UTC+00:00)

Okean O Rocket - Pass Details

Date: 16 October 2021
Orbit: 623 x 643 km, 98.2° (Epoch: 29 November)

Event Time Altitude Azimuth Distance (km) Brightness Sun altitude
Rises 16:18:29 0° 154° (SSE) 2,893 4.8 -7.2°
Reaches altitude 10° 16:20:41 10° 151° (SSE) 1,990 3.9 -7.5°
Maximum altitude 16:24:56 59° 72° (ENE) 726 1.6 -8.3°
Drops below altitude 10° 16:29:13 10° 354° (N) 2,009 4.2 -9.0°
Sets 16:31:27 0° 350° (N) 2,922 5.1 -9.4°
